| time (UTC) | temp F | wind direction | speed MPH | gust MPH | rain 1hr in | rain 24hr in | rain mn in | humidity % | barometer mb |
| 20260903060445 | 71 | 49 | 0.0 | 0.0 | 0.00 | 0.00 | 0.00 | 72 | 973.4 |
| 20260903055945 | 72 | 49 | 0.0 | 0.0 | 0.00 | 0.00 | 0.00 | 71 | 973.3 |
| 20260903055446 | 72 | 49 | 0.0 | 0.0 | 0.00 | 0.00 | 0.00 | 72 | 973.3 |
| 20260903054945 | 72 | 49 | 0.0 | 0.0 | 0.00 | 0.00 | 0.00 | 72 | 973.4 |
| 20260903054444 | 72 | 49 | 0.0 | 0.0 | 0.00 | 0.00 | 0.00 | 72 | 973.4 |
| 20260903053945 | 72 | 49 | 0.0 | 0.0 | 0.00 | 0.00 | 0.00 | 72 | 973.4 |
| 20260903053444 | 72 | 49 | 0.0 | 0.0 | 0.00 | 0.00 | 0.00 | 73 | 973.3 |
| 20260903052943 | 72 | 49 | 0.0 | 0.0 | 0.00 | 0.00 | 0.00 | 73 | 973.4 |
| 20260903052442 | 72 | 49 | 0.0 | 0.0 | 0.00 | 0.00 | 0.00 | 74 | 973.4 |
| 20260903051945 | 72 | 49 | 0.0 | 0.0 | 0.00 | 0.00 | 0.00 | 74 | 973.5 |
| 20260903051438 | 72 | 49 | 0.0 | 0.0 | 0.00 | 0.00 | 0.00 | 74 | 973.5 |
| 20260903050931 | 73 | 49 | 0.0 | 0.0 | 0.00 | 0.00 | 0.00 | 74 | 973.7 |
| 20260903050425 | 73 | 49 | 0.0 | 0.0 | 0.00 | 0.00 | 0.00 | 74 | 973.7 |
| 20260903045919 | 73 | 49 | 0.0 | 0.0 | 0.00 | 0.00 | 0.00 | 74 | 973.8 |
| 20260903044906 | 73 | 49 | 0.0 | 0.0 | 0.00 | 0.00 | 0.00 | 75 | 973.7 |
| 20260903044402 | 73 | 49 | 0.0 | 0.0 | 0.00 | 0.00 | 0.00 | 75 | 973.8 |
| 20260903043856 | 73 | 49 | 0.0 | 0.0 | 0.00 | 0.00 | 0.00 | 75 | 973.8 |
| 20260903043355 | 73 | 49 | 0.0 | 0.0 | 0.00 | 0.00 | 0.00 | 75 | 973.8 |
| 20260903042856 | 73 | 49 | 0.0 | 0.0 | 0.00 | 0.00 | 0.00 | 76 | 973.8 |
| 20260903042354 | 73 | 49 | 0.0 | 0.0 | 0.00 | 0.00 | 0.00 | 76 | 973.9 |
| 20260903041854 | 74 | 49 | 0.0 | 0.0 | 0.00 | 0.00 | 0.00 | 76 | 973.9 |
| 20260903041354 | 74 | 49 | 0.0 | 0.0 | 0.00 | 0.00 | 0.00 | 76 | 974.0 |
| 20260903040853 | 74 | 49 | 0.0 | 0.0 | 0.00 | 0.00 | 0.00 | 76 | 974.0 |
| 20260903040350 | 74 | 49 | 0.0 | 0.0 | 0.00 | 0.00 | 0.00 | 77 | 973.9 |
| 20260903035846 | 74 | 49 | 0.0 | 0.0 | 0.00 | 0.00 | 0.00 | 77 | 974.0 |
| 20260903035347 | 74 | 49 | 0.0 | 0.0 | 0.00 | 0.00 | 0.00 | 77 | 974.1 |
| 20260903034847 | 74 | 49 | 0.0 | 0.0 | 0.00 | 0.00 | 0.00 | 78 | 974.2 |
| 20260903034347 | 74 | 49 | 0.0 | 0.0 | 0.00 | 0.00 | 0.00 | 78 | 974.2 |
| 20260903033847 | 75 | 49 | 0.0 | 0.0 | 0.00 | 0.00 | 0.00 | 78 | 974.2 |
| 20260903033347 | 75 | 49 | 0.0 | 0.0 | 0.00 | 0.00 | 0.00 | 78 | 974.2 |
| 20260903032842 | 75 | 49 | 0.0 | 0.0 | 0.00 | 0.00 | 0.00 | 78 | 974.3 |
| 20260903031343 | 75 | 49 | 0.0 | 0.0 | 0.00 | 0.00 | 0.00 | 79 | 974.4 |
| 20260903030844 | 75 | 49 | 0.0 | 0.0 | 0.00 | 0.00 | 0.00 | 79 | 974.4 |
| 20260903030344 | 75 | 49 | 0.0 | 0.0 | 0.00 | 0.00 | 0.00 | 80 | 974.5 |
| 20260903025845 | 76 | 49 | 0.0 | 0.0 | 0.00 | 0.00 | 0.00 | 80 | 974.6 |
| 20260903023830 | 76 | 49 | 0.0 | 0.0 | 0.00 | 0.00 | 0.00 | 81 | 974.6 |
| 20260903023323 | 76 | 49 | 0.0 | 0.0 | 0.00 | 0.00 | 0.00 | 82 | 974.6 |
| 20260903022818 | 76 | 49 | 0.0 | 0.0 | 0.00 | 0.00 | 0.00 | 82 | 974.6 |
| 20260903022314 | 77 | 49 | 0.0 | 0.0 | 0.00 | 0.00 | 0.00 | 82 | 974.7 |
| 20260903021809 | 77 | 49 | 0.0 | 0.0 | 0.00 | 0.00 | 0.00 | 83 | 974.8 |
| 20260903021306 | 77 | 49 | 0.0 | 0.0 | 0.00 | 0.00 | 0.00 | 82 | 974.7 |
| 20260903020804 | 77 | 49 | 0.0 | 0.0 | 0.00 | 0.00 | 0.00 | 83 | 974.7 |
| 20260903020302 | 77 | 49 | 0.0 | 0.0 | 0.00 | 0.00 | 0.00 | 83 | 974.7 |
| 20260903015801 | 77 | 49 | 0.0 | 0.0 | 0.00 | 0.00 | 0.00 | 83 | 974.7 |
| 20260903014800 | 78 | 49 | 0.0 | 0.0 | 0.00 | 0.00 | 0.00 | 84 | 974.5 |
| 20260903014259 | 78 | 49 | 0.0 | 0.0 | 0.00 | 0.00 | 0.00 | 84 | 974.5 |
| 20260903013757 | 78 | 49 | 0.0 | 0.0 | 0.00 | 0.00 | 0.00 | 84 | 974.4 |
| 20260903013256 | 78 | 49 | 0.0 | 0.0 | 0.00 | 0.00 | 0.00 | 85 | 974.3 |
| 20260903012757 | 78 | 49 | 0.0 | 0.0 | 0.00 | 0.00 | 0.00 | 85 | 974.2 |
| 20260903012256 | 78 | 49 | 0.0 | 0.0 | 0.00 | 0.00 | 0.00 | 85 | 974.1 |
| 20260903011759 | 79 | 49 | 0.0 | 0.0 | 0.00 | 0.00 | 0.00 | 85 | 974.1 |
| 20260903011257 | 79 | 49 | 0.0 | 0.0 | 0.00 | 0.00 | 0.00 | 85 | 974.0 |
| 20260903010254 | 79 | 49 | 0.0 | 0.0 | 0.00 | 0.00 | 0.00 | 85 | 973.9 |
| 20260903005752 | 79 | 49 | 0.0 | 0.0 | 0.00 | 0.00 | 0.00 | 86 | 973.8 |
| 20260903005254 | 79 | 49 | 0.0 | 0.0 | 0.00 | 0.00 | 0.00 | 85 | 973.9 |
| 20260903004751 | 80 | 49 | 0.0 | 0.0 | 0.00 | 0.00 | 0.00 | 85 | 973.9 |
| 20260903003743 | 80 | 49 | 0.0 | 0.0 | 0.00 | 0.00 | 0.00 | 85 | 973.9 |
| 20260903003237 | 81 | 49 | 0.0 | 0.0 | 0.00 | 0.00 | 0.00 | 85 | 973.8 |
| 20260903002731 | 81 | 49 | 0.0 | 0.0 | 0.00 | 0.00 | 0.00 | 85 | 973.8 |
| 20260903002226 | 82 | 49 | 0.0 | 0.0 | 0.00 | 0.00 | 0.00 | 84 | 973.7 |
| 20260903001720 | 82 | 49 | 0.0 | 0.0 | 0.00 | 0.00 | 0.00 | 84 | 973.6 |
| 20260903000707 | 83 | 49 | 0.0 | 0.0 | 0.00 | 0.00 | 0.00 | 83 | 973.6 |
| 20260903000204 | 83 | 49 | 0.0 | 0.0 | 0.00 | 0.00 | 0.00 | 83 | 973.5 |
| 20260902235656 | 84 | 49 | 0.0 | 0.0 | 0.00 | 0.00 | 0.00 | 83 | 973.4 |
| 20260902235150 | 84 | 49 | 0.0 | 0.0 | 0.00 | 0.00 | 0.00 | 82 | 973.4 |
| 20260902233632 | 86 | 49 | 0.0 | 0.0 | 0.00 | 0.00 | 0.00 | 79 | 973.4 |
| 20260902233125 | 87 | 49 | 0.0 | 0.0 | 0.00 | 0.00 | 0.00 | 77 | 973.4 |
| 20260902232620 | 87 | 49 | 0.0 | 0.0 | 0.00 | 0.00 | 0.00 | 75 | 973.4 |
| 20260902232114 | 88 | 49 | 0.0 | 0.0 | 0.00 | 0.00 | 0.00 | 74 | 973.3 |
| 20260902231609 | 89 | 49 | 0.0 | 0.0 | 0.00 | 0.00 | 0.00 | 74 | 973.4 |
| 20260902231102 | 89 | 49 | 0.0 | 0.0 | 0.00 | 0.00 | 0.00 | 72 | 973.4 |
| 20260902230556 | 89 | 49 | 0.0 | 0.0 | 0.00 | 0.00 | 0.00 | 72 | 973.4 |
| 20260902230051 | 89 | 49 | 0.0 | 0.0 | 0.00 | 0.00 | 0.00 | 70 | 973.4 |
| 20260902225544 | 90 | 49 | 0.0 | 0.0 | 0.00 | 0.00 | 0.00 | 70 | 973.4 |
| 20260902225038 | 91 | 49 | 0.0 | 0.0 | 0.00 | 0.00 | 0.00 | 70 | 973.4 |
| 20260902224532 | 92 | 49 | 0.0 | 0.0 | 0.00 | 0.00 | 0.00 | 65 | 973.4 |
| 20260902223014 | 95 | 49 | 0.0 | 2.0 | 0.00 | 0.00 | 0.00 | 62 | 973.4 |
| 20260902222508 | 95 | 49 | 0.0 | 2.0 | 0.00 | 0.00 | 0.00 | 60 | 973.4 |
| 20260902222003 | 95 | 49 | 0.0 | 0.0 | 0.00 | 0.00 | 0.00 | 61 | 973.4 |
| 20260902220950 | 95 | 49 | 0.0 | 2.0 | 0.00 | 0.00 | 0.00 | 62 | 973.5 |
| 20260902220444 | 95 | 49 | 1.0 | 4.0 | 0.00 | 0.00 | 0.00 | 62 | 973.5 |
| 20260902215432 | 96 | 150 | 0.0 | 2.0 | 0.00 | 0.00 | 0.00 | 61 | 973.5 |
| 20260902214926 | 96 | 150 | 0.0 | 2.0 | 0.00 | 0.00 | 0.00 | 58 | 973.5 |
| 20260902214420 | 96 | 150 | 0.0 | 2.0 | 0.00 | 0.00 | 0.00 | 58 | 973.5 |
| 20260902213407 | 96 | 146 | 1.0 | 4.0 | 0.00 | 0.00 | 0.00 | 59 | 973.5 |
| 20260902212901 | 96 | 146 | 1.0 | 5.0 | 0.00 | 0.00 | 0.00 | 57 | 973.5 |
| 20260902212356 | 96 | 165 | 1.0 | 5.0 | 0.00 | 0.00 | 0.00 | 60 | 973.5 |
| 20260902211849 | 95 | 253 | 1.0 | 4.0 | 0.00 | 0.00 | 0.00 | 61 | 973.6 |
| 20260902210838 | 94 | 345 | 2.0 | 4.0 | 0.00 | 0.00 | 0.00 | 60 | 973.6 |
| 20260902210331 | 95 | 304 | 2.0 | 4.0 | 0.00 | 0.00 | 0.00 | 60 | 973.6 |
| 20260902205825 | 94 | 204 | 2.0 | 5.0 | 0.00 | 0.00 | 0.00 | 61 | 973.6 |
| 20260902205320 | 94 | 131 | 2.0 | 5.0 | 0.00 | 0.00 | 0.00 | 59 | 973.6 |
| 20260902204814 | 94 | 298 | 2.0 | 10.0 | 0.00 | 0.00 | 0.00 | 60 | 973.7 |
| 20260902204308 | 95 | 310 | 3.0 | 10.0 | 0.00 | 0.00 | 0.00 | 59 | 973.6 |
| 20260902203802 | 95 | 166 | 2.0 | 7.0 | 0.00 | 0.00 | 0.00 | 61 | 973.6 |
| 20260902202750 | 96 | 134 | 1.0 | 5.0 | 0.00 | 0.00 | 0.00 | 58 | 973.7 |
| 20260902202244 | 96 | 315 | 1.0 | 4.0 | 0.00 | 0.00 | 0.00 | 61 | 973.6 |
| 20260902201231 | 95 | 304 | 2.0 | 9.0 | 0.00 | 0.00 | 0.00 | 62 | 973.7 |
| 20260902200726 | 95 | 129 | 2.0 | 9.0 | 0.00 | 0.00 | 0.00 | 59 | 973.8 |
| 20260902200219 | 95 | 319 | 2.0 | 4.0 | 0.00 | 0.00 | 0.00 | 60 | 973.8 |
| 20260902195714 | 95 | 5 | 1.0 | 4.0 | 0.00 | 0.00 | 0.00 | 58 | 973.9 |
| 20260902195207 | 95 | 59 | 1.0 | 4.0 | 0.00 | 0.00 | 0.00 | 61 | 973.9 |
| 20260902194701 | 95 | 59 | 2.0 | 9.0 | 0.00 | 0.00 | 0.00 | 64 | 974.0 |
| 20260902194155 | 95 | 281 | 2.0 | 9.0 | 0.00 | 0.00 | 0.00 | 61 | 974.1 |
| 20260902193649 | 95 | 319 | 2.0 | 5.0 | 0.00 | 0.00 | 0.00 | 62 | 974.1 |
| 20260902193144 | 95 | 280 | 1.0 | 4.0 | 0.00 | 0.00 | 0.00 | 61 | 974.2 |
| 20260902192637 | 95 | 298 | 1.0 | 4.0 | 0.00 | 0.00 | 0.00 | 65 | 974.2 |
| 20260902192137 | 94 | 288 | 2.0 | 7.0 | 0.00 | 0.00 | 0.00 | 61 | 974.2 |
| 20260902191636 | 94 | 313 | 3.0 | 7.0 | 0.00 | 0.00 | 0.00 | 59 | 974.3 |
| 20260902191137 | 94 | 293 | 2.0 | 8.0 | 0.00 | 0.00 | 0.00 | 61 | 974.4 |
| 20260902190636 | 94 | 350 | 3.0 | 8.0 | 0.00 | 0.00 | 0.00 | 61 | 974.4 |
| 20260902190134 | 94 | 355 | 3.0 | 8.0 | 0.00 | 0.00 | 0.00 | 62 | 974.5 |
| 20260902185634 | 95 | 288 | 2.0 | 5.0 | 0.00 | 0.00 | 0.00 | 63 | 974.5 |
| 20260902185136 | 95 | 109 | 1.0 | 5.0 | 0.00 | 0.00 | 0.00 | 61 | 974.6 |
| 20260902184635 | 94 | 344 | 1.0 | 5.0 | 0.00 | 0.00 | 0.00 | 63 | 974.6 |
| 20260902184134 | 94 | 146 | 2.0 | 8.0 | 0.00 | 0.00 | 0.00 | 63 | 974.5 |
| 20260902183634 | 94 | 294 | 2.0 | 8.0 | 0.00 | 0.00 | 0.00 | 64 | 974.6 |
| 20260902183132 | 94 | 146 | 1.0 | 4.0 | 0.00 | 0.00 | 0.00 | 62 | 974.6 |
| 20260902182630 | 93 | 314 | 1.0 | 8.0 | 0.00 | 0.00 | 0.00 | 62 | 974.6 |
| 20260902182128 | 93 | 313 | 3.0 | 8.0 | 0.00 | 0.00 | 0.00 | 62 | 974.7 |
| 20260902181628 | 94 | 342 | 3.0 | 7.0 | 0.00 | 0.00 | 0.00 | 63 | 974.8 |
| 20260902180124 | 93 | 336 | 1.0 | 4.0 | 0.00 | 0.00 | 0.00 | 63 | 974.7 |
| 20260902175626 | 93 | 293 | 1.0 | 5.0 | 0.00 | 0.00 | 0.00 | 63 | 974.9 |
| 20260902175122 | 93 | 306 | 1.0 | 5.0 | 0.00 | 0.00 | 0.00 | 63 | 974.9 |
| 20260902174612 | 93 | 308 | 2.0 | 8.0 | 0.00 | 0.00 | 0.00 | 67 | 975.0 |
| 20260902174106 | 93 | 305 | 2.0 | 8.0 | 0.00 | 0.00 | 0.00 | 67 | 975.0 |
| 20260902172559 | 92 | 337 | 3.0 | 9.0 | 0.00 | 0.00 | 0.00 | 66 | 975.2 |
| 20260902171558 | 92 | 301 | 3.0 | 8.0 | 0.00 | 0.00 | 0.00 | 66 | 975.2 |
| 20260902170559 | 92 | 302 | 2.0 | 9.0 | 0.00 | 0.00 | 0.00 | 64 | 975.3 |
| 20260902170058 | 92 | 293 | 1.0 | 5.0 | 0.00 | 0.00 | 0.00 | 64 | 975.3 |
| 20260902165558 | 93 | 309 | 1.0 | 5.0 | 0.00 | 0.00 | 0.00 | 67 | 975.4 |
| 20260902165057 | 92 | 311 | 1.0 | 5.0 | 0.00 | 0.00 | 0.00 | 64 | 975.5 |
| 20260902164558 | 92 | 309 | 1.0 | 5.0 | 0.00 | 0.00 | 0.00 | 65 | 975.6 |
| 20260902164053 | 92 | 345 | 2.0 | 5.0 | 0.00 | 0.00 | 0.00 | 65 | 975.6 |
| 20260902163554 | 92 | 149 | 2.0 | 5.0 | 0.00 | 0.00 | 0.00 | 66 | 975.7 |
| 20260902163055 | 92 | 115 | 2.0 | 5.0 | 0.00 | 0.00 | 0.00 | 64 | 975.8 |
| 20260902162553 | 92 | 346 | 1.0 | 5.0 | 0.00 | 0.00 | 0.00 | 67 | 975.9 |
| 20260902162053 | 91 | 188 | 2.0 | 7.0 | 0.00 | 0.00 | 0.00 | 64 | 975.9 |
| 20260902161555 | 91 | 283 | 2.0 | 7.0 | 0.00 | 0.00 | 0.00 | 65 | 976.0 |
| 20260902161053 | 91 | 167 | 2.0 | 5.0 | 0.00 | 0.00 | 0.00 | 63 | 975.9 |
| 20260902160554 | 91 | 275 | 2.0 | 7.0 | 0.00 | 0.00 | 0.00 | 63 | 976.1 |
| 20260902160054 | 92 | 310 | 1.0 | 7.0 | 0.00 | 0.00 | 0.00 | 64 | 976.0 |
| 20260902155554 | 91 | 313 | 1.0 | 6.0 | 0.00 | 0.00 | 0.00 | 65 | 975.9 |
| 20260902155055 | 91 | 151 | 1.0 | 6.0 | 0.00 | 0.00 | 0.00 | 64 | 975.9 |
| 20260902154553 | 91 | 36 | 1.0 | 4.0 | 0.00 | 0.00 | 0.00 | 66 | 976.0 |
| 20260902154054 | 91 | 36 | 0.0 | 3.0 | 0.00 | 0.00 | 0.00 | 70 | 976.0 |
| 20260902153554 | 90 | 36 | 1.0 | 4.0 | 0.00 | 0.00 | 0.00 | 73 | 976.0 |
| 20260902153054 | 90 | 36 | 1.0 | 4.0 | 0.00 | 0.00 | 0.00 | 73 | 976.0 |
| 20260902152553 | 90 | 36 | 1.0 | 3.0 | 0.00 | 0.00 | 0.00 | 70 | 976.0 |
| 20260902152053 | 90 | 36 | 1.0 | 4.0 | 0.00 | 0.00 | 0.00 | 71 | 976.0 |
| 20260902151551 | 90 | 36 | 1.0 | 4.0 | 0.00 | 0.00 | 0.00 | 70 | 975.9 |
| 20260902151045 | 90 | 36 | 1.0 | 3.0 | 0.00 | 0.00 | 0.00 | 70 | 975.9 |
| 20260902150538 | 89 | 36 | 0.0 | 2.0 | 0.00 | 0.00 | 0.00 | 70 | 975.9 |
| 20260902150032 | 89 | 36 | 0.0 | 2.0 | 0.00 | 0.00 | 0.00 | 70 | 975.9 |
| 20260902145614 | 89 | 36 | 1.0 | 3.0 | 0.00 | 0.00 | 0.00 | 71 | 975.9 |
| 20260902145021 | 88 | 36 | 1.0 | 3.0 | 0.00 | 0.00 | 0.00 | 76 | 975.9 |
| 20260902144011 | 88 | 36 | 0.0 | 2.0 | 0.00 | 0.00 | 0.00 | 75 | 975.8 |
| 20260902143503 | 87 | 36 | 0.0 | 2.0 | 0.00 | 0.00 | 0.00 | 78 | 975.8 |
| 20260902141944 | 86 | 36 | 1.0 | 2.0 | 0.00 | 0.00 | 0.00 | 81 | 975.9 |
| 20260902141446 | 85 | 36 | 1.0 | 2.0 | 0.00 | 0.00 | 0.00 | 80 | 975.8 |
| 20260902140943 | 85 | 36 | 1.0 | 3.0 | 0.00 | 0.00 | 0.00 | 81 | 975.9 |
| 20260902140441 | 84 | 36 | 0.0 | 3.0 | 0.00 | 0.00 | 0.00 | 81 | 975.8 |
| 20260902135941 | 84 | 36 | 0.0 | 2.0 | 0.00 | 0.00 | 0.00 | 83 | 975.8 |
| 20260902135437 | 83 | 36 | 0.0 | 0.0 | 0.00 | 0.00 | 0.00 | 83 | 975.8 |
| 20260902134935 | 83 | 36 | 0.0 | 0.0 | 0.00 | 0.00 | 0.00 | 82 | 975.8 |
| 20260902134435 | 83 | 36 | 0.0 | 0.0 | 0.00 | 0.00 | 0.00 | 84 | 975.8 |
| 20260902133935 | 82 | 36 | 0.0 | 0.0 | 0.00 | 0.00 | 0.00 | 84 | 975.8 |
| 20260902133433 | 82 | 36 | 0.0 | 0.0 | 0.00 | 0.00 | 0.00 | 85 | 975.8 |
| 20260902132933 | 81 | 36 | 0.0 | 0.0 | 0.00 | 0.00 | 0.00 | 84 | 975.8 |
| 20260902132432 | 80 | 36 | 0.0 | 0.0 | 0.00 | 0.00 | 0.00 | 82 | 975.8 |
| 20260902131932 | 79 | 36 | 0.0 | 0.0 | 0.00 | 0.00 | 0.00 | 77 | 975.8 |
| 20260902131429 | 77 | 36 | 0.0 | 0.0 | 0.00 | 0.00 | 0.00 | 71 | 975.8 |
| 20260902130927 | 76 | 36 | 0.0 | 0.0 | 0.00 | 0.00 | 0.00 | 69 | 975.8 |
| 20260902130426 | 75 | 36 | 0.0 | 0.0 | 0.00 | 0.00 | 0.00 | 67 | 975.8 |
| 20260902125923 | 74 | 36 | 0.0 | 0.0 | 0.00 | 0.00 | 0.00 | 67 | 975.8 |
| 20260902125423 | 73 | 36 | 0.0 | 0.0 | 0.00 | 0.00 | 0.00 | 67 | 975.8 |
| 20260902124923 | 72 | 36 | 0.0 | 0.0 | 0.00 | 0.00 | 0.00 | 67 | 975.8 |
| 20260902124422 | 72 | 36 | 0.0 | 0.0 | 0.00 | 0.00 | 0.00 | 67 | 975.8 |
| 20260902123923 | 71 | 36 | 0.0 | 0.0 | 0.00 | 0.00 | 0.00 | 68 | 975.8 |
| 20260902123417 | 71 | 36 | 0.0 | 0.0 | 0.00 | 0.00 | 0.00 | 68 | 975.8 |
| 20260902122911 | 70 | 36 | 0.0 | 0.0 | 0.00 | 0.00 | 0.00 | 68 | 975.8 |
| 20260902122406 | 70 | 36 | 0.0 | 0.0 | 0.00 | 0.00 | 0.00 | 68 | 975.8 |
| 20260902121859 | 70 | 36 | 0.0 | 0.0 | 0.00 | 0.00 | 0.00 | 68 | 975.7 |
| 20260902120847 | 69 | 36 | 0.0 | 0.0 | 0.00 | 0.00 | 0.00 | 68 | 975.7 |
| 20260902120341 | 69 | 36 | 0.0 | 0.0 | 0.00 | 0.00 | 0.00 | 69 | 975.7 |
| 20260902114824 | 68 | 36 | 0.0 | 0.0 | 0.00 | 0.00 | 0.00 | 69 | 975.5 |
| 20260902114317 | 68 | 36 | 0.0 | 0.0 | 0.00 | 0.00 | 0.00 | 69 | 975.5 |
| 20260902113811 | 68 | 36 | 0.0 | 0.0 | 0.00 | 0.00 | 0.00 | 69 | 975.4 |
| 20260902113305 | 68 | 36 | 0.0 | 0.0 | 0.00 | 0.00 | 0.00 | 69 | 975.3 |
| 20260902112800 | 68 | 36 | 0.0 | 0.0 | 0.00 | 0.00 | 0.00 | 69 | 975.3 |
| 20260902112255 | 68 | 36 | 0.0 | 0.0 | 0.00 | 0.00 | 0.00 | 70 | 975.3 |
| 20260902111749 | 68 | 36 | 0.0 | 0.0 | 0.00 | 0.00 | 0.00 | 70 | 975.2 |
| 20260902111241 | 69 | 36 | 0.0 | 0.0 | 0.00 | 0.00 | 0.00 | 69 | 975.2 |
| 20260902110735 | 69 | 36 | 0.0 | 0.0 | 0.00 | 0.00 | 0.00 | 69 | 975.1 |
| 20260902110230 | 69 | 36 | 0.0 | 0.0 | 0.00 | 0.00 | 0.00 | 69 | 975.2 |
| 20260902105723 | 69 | 36 | 0.0 | 0.0 | 0.00 | 0.00 | 0.00 | 69 | 975.2 |
| 20260902105217 | 69 | 36 | 0.0 | 0.0 | 0.00 | 0.00 | 0.00 | 69 | 975.2 |
| 20260902104711 | 69 | 36 | 0.0 | 0.0 | 0.00 | 0.00 | 0.00 | 69 | 975.2 |
| 20260902104205 | 69 | 36 | 0.0 | 0.0 | 0.00 | 0.00 | 0.00 | 69 | 975.2 |
| 20260902103153 | 69 | 36 | 0.0 | 0.0 | 0.00 | 0.00 | 0.00 | 69 | 975.3 |
| 20260902102647 | 69 | 36 | 0.0 | 0.0 | 0.00 | 0.00 | 0.00 | 69 | 975.3 |
| 20260902102141 | 69 | 36 | 0.0 | 0.0 | 0.00 | 0.00 | 0.00 | 69 | 975.3 |
| 20260902101636 | 69 | 36 | 0.0 | 0.0 | 0.00 | 0.00 | 0.00 | 69 | 975.3 |
| 20260902101128 | 69 | 36 | 0.0 | 0.0 | 0.00 | 0.00 | 0.00 | 69 | 975.3 |
| 20260902100623 | 69 | 36 | 0.0 | 0.0 | 0.00 | 0.00 | 0.00 | 69 | 975.1 |
| 20260902095105 | 69 | 36 | 0.0 | 0.0 | 0.00 | 0.00 | 0.00 | 69 | 975.0 |
| 20260902094600 | 69 | 36 | 0.0 | 0.0 | 0.00 | 0.00 | 0.00 | 69 | 974.9 |
| 20260902093547 | 69 | 36 | 0.0 | 0.0 | 0.00 | 0.00 | 0.00 | 70 | 974.9 |
| 20260902092537 | 69 | 36 | 0.0 | 0.0 | 0.00 | 0.00 | 0.00 | 70 | 974.8 |
| 20260902092029 | 69 | 36 | 0.0 | 0.0 | 0.00 | 0.00 | 0.00 | 70 | 974.7 |
| 20260902091523 | 69 | 36 | 0.0 | 0.0 | 0.00 | 0.00 | 0.00 | 70 | 974.7 |
| 20260902091017 | 69 | 36 | 0.0 | 0.0 | 0.00 | 0.00 | 0.00 | 70 | 974.7 |
| 20260902090512 | 69 | 36 | 0.0 | 0.0 | 0.00 | 0.00 | 0.00 | 70 | 974.8 |
| 20260902090005 | 69 | 36 | 0.0 | 0.0 | 0.00 | 0.00 | 0.00 | 70 | 974.7 |
| 20260902085459 | 69 | 36 | 0.0 | 0.0 | 0.00 | 0.00 | 0.00 | 70 | 974.7 |
| 20260902084447 | 69 | 36 | 0.0 | 0.0 | 0.00 | 0.00 | 0.00 | 71 | 974.7 |
| 20260902083436 | 69 | 36 | 0.0 | 0.0 | 0.00 | 0.00 | 0.00 | 71 | 974.7 |
| 20260902082929 | 70 | 36 | 0.0 | 0.0 | 0.00 | 0.00 | 0.00 | 71 | 974.8 |
| 20260902082425 | 70 | 36 | 0.0 | 0.0 | 0.00 | 0.00 | 0.00 | 71 | 974.7 |
| 20260902081918 | 70 | 36 | 0.0 | 0.0 | 0.00 | 0.00 | 0.00 | 71 | 974.7 |
| 20260902081411 | 70 | 36 | 0.0 | 0.0 | 0.00 | 0.00 | 0.00 | 71 | 974.7 |
| 20260902080906 | 70 | 36 | 0.0 | 0.0 | 0.00 | 0.00 | 0.00 | 71 | 974.7 |
| 20260902075854 | 70 | 36 | 0.0 | 0.0 | 0.00 | 0.00 | 0.00 | 71 | 974.6 |
| 20260902074841 | 70 | 36 | 0.0 | 0.0 | 0.00 | 0.00 | 0.00 | 71 | 974.6 |
| 20260902074335 | 70 | 36 | 0.0 | 0.0 | 0.00 | 0.00 | 0.00 | 71 | 974.5 |
| 20260902072819 | 70 | 36 | 0.0 | 0.0 | 0.00 | 0.00 | 0.00 | 72 | 974.5 |
| 20260902072312 | 70 | 36 | 0.0 | 0.0 | 0.00 | 0.00 | 0.00 | 72 | 974.6 |
| 20260902071805 | 71 | 36 | 0.0 | 0.0 | 0.00 | 0.00 | 0.00 | 72 | 974.6 |
| 20260902071259 | 71 | 36 | 0.0 | 0.0 | 0.00 | 0.00 | 0.00 | 71 | 974.5 |
| 20260902070753 | 71 | 36 | 0.0 | 0.0 | 0.00 | 0.00 | 0.00 | 72 | 974.6 |
| 20260902065741 | 71 | 36 | 0.0 | 0.0 | 0.00 | 0.00 | 0.00 | 72 | 974.5 |
| 20260902065236 | 71 | 36 | 0.0 | 0.0 | 0.00 | 0.00 | 0.00 | 72 | 974.5 |
| 20260902064729 | 71 | 36 | 0.0 | 0.0 | 0.00 | 0.00 | 0.00 | 73 | 974.5 |
| 20260902063717 | 71 | 36 | 0.0 | 0.0 | 0.00 | 0.00 | 0.00 | 73 | 974.5 |
| 20260902063211 | 71 | 36 | 0.0 | 0.0 | 0.00 | 0.00 | 0.00 | 73 | 974.5 |
| 20260902062706 | 71 | 36 | 0.0 | 0.0 | 0.00 | 0.00 | 0.00 | 73 | 974.6 |
| 20260902062159 | 71 | 36 | 0.0 | 0.0 | 0.00 | 0.00 | 0.00 | 74 | 974.5 |
| 20260902060641 | 71 | 36 | 0.0 | 0.0 | 0.00 | 0.00 | 0.00 | 74 | 974.6 |